Погода в Банниковом

Россия / Тюменская область     56°06′56″N   70°16′38″E
темп.,
°C
ветер,
м/с
пор.,
м/с
влажн.,
%
обл.,
%
осадки,
мм/ч
давл.,
гПа
погр.,
м
18 января, пн
пн1823:00−10зюз71489100 0.3 1004649
02:00−11зюз71391100 0.1 1005578
05:00−16зюз6149298 0.1 1008351
08:00−19з5119570 0.0 1011260
11:00−18з5109449 0.0 1014320
14:00−17з589359 0.0 1016319
17:00−20зюз499649 0.0 1018174
20:00−22зюз49950 0.0 1019139
19 января, вт
вт1923:00−22зюз47920 0.0 1020110
02:00−23зюз48920 0.0 1021142
05:00−23зюз47930 0.0 1021121
08:00−24з349327 0.0 102248
11:00−21зсз239363 0.0 1023104
14:00−19з129339 0.0 1023142
17:00−24с119730 0.0 102420
20:00−24в129514 0.0 102520
20 января, ср
ср2023:00−24в339523 0.0 102525
02:00−23вюв369582 0.0 1026119
05:00−22вюв499591 0.0 1025195
08:00−22вюв61094100 0.0 1024257
11:00−20вюв61194100 0.0 1022288
14:00−18вюв71391100 0.0 1019372
17:00−17юв71493100 0.4 1016582
20:00−17юв61294100 1.2 1015565
21 января, чт
чт2123:00−16ююв51194100 1.3 1014349
02:00−17ююз4996100 0.1 1014265
05:00−21ююз51097100 0.1 1013219
08:00−23ююз5119775 0.0 1012206
11:00−22юз6119588 0.1 1012329
14:00−20юз61095100 0.1 1011395
17:00−20юз61194100 0.1 1010540
20:00−20зюз61393100 0.1 1010565
22 января, пт
пт2223:00−19зюз61294100 0.1 1010437
02:00−22зюз61296100 0.0 1011262
05:00−24зюз5119777 0.0 1012206
08:00−23зюз489890 0.1 1013193
11:00−22зюз479692 0.1 1013259
14:00−20юз3596100 0.1 1012285
17:00−21ю3598100 0.3 1012197
20:00−21ю2499100 0.3 1011149